Location: Mount Cross
(36.6390°N, 79.4878°W)
Time: 19:26:36
(UTC+00:00)

Courier 1B Rocket - Pass Details

Date: 27 March 2023
Orbit: 920 x 1202 km, 28.2° (Epoch: 08 June)

Event Time Altitude Azimuth Distance (km) Brightness Sun altitude
Rises 23:00:11 0° 219° (SW) 3,995 8.8 6.3°
Reaches altitude 10° 23:03:46 10° 205° (SSW) 2,992 7.9 5.6°
Maximum altitude 23:09:03 21° 158° (SSE) 2,193 6.7 4.5°
Drops below altitude 10° 23:14:06 10° 112° (ESE) 2,844 6.9 3.5°
Sets 23:17:24 0° 97° (E) 3,747 7.4 2.8°
